{"data":{"norad_id":64820,"epoch":"2026-09-21T20:44:11.405760Z","epoch_age_seconds":56621,"freshness":"FRESH","line1":"1 64820U 25151E   26264.86402090  .00001920  00000+0  28081-3 0  9996","line2":"2 64820  51.8996 155.5937 0001160  87.9329 272.1766 14.79929432 65508","mean_motion":14.79929432,"eccentricity":0.000116,"inclination_deg":51.8996,"raan_deg":155.5937,"arg_perigee_deg":87.9329,"mean_anomaly_deg":272.1766,"bstar":0.00028081,"rev_number":6550,"period_min":97.301936758833,"perigee_km":628.73400115794,"apogee_km":630.359783821,"semimajor_km":7007.6838924895,"source":"CELESTRAK","updated_at":"2026-09-22T09:00:29.974381Z"}}